Wind_Speed
15 14 14 12 10 11 13 13 11 14 14 11 13 11 14 17 15 13 10 10 9 8 9 12 12 13 14 13 8 7 10 13 14 10 12 12 12 12 16 17 17 24 13
14 15 18 16 14 15 16 16 15 14 14 19 11 14 17 15 16 13 11 12 11 11 13 12 13 16 13 13 10 7 10 11 14 14 11 13 15 17 16 17 21 25 23
29 21 22 22 18 18 17 16 16 15 13 12 14 15 17 17 18 16 12 13 11 11 10 10 11 12 11 12 10 9 10 11 13 14 15 15 15 17 19 19 22 26 27
21 30 23 25 20 19 19 19 17 15 15 14 14 12 14 15 14 12 10 12 10 9 11 11 11 12 12 11 11 11 12 14 15 16 16 18 19 20 21 22 24 26 25
24 23 29 27 26 23 20 21 20 19 20 19 17 15 14 13 12 11 12 14 13 12 13 13 12 13 15 13 13 14 15 16 17 17 18 20 22 23 26 26 24 25 25
19 23 29 27 26 24 26 23 21 22 22 20 21 18 15 15 16 16 17 18 16 16 17 16 15 15 15 16 16 16 17 18 19 21 23 24 25 26 24 25 25 27 29
22 23 28 27 29 33 25 25 24 25 24 22 23 22 20 21 22 21 21 21 19 21 20 20 21 18 17 19 20 19 20 22 23 23 25 26 27 28 29 29 29 30 32
26 24 24 27 19 35 27 24 25 27 26 25 24 24 23 23 25 24 24 25 24 22 22 23 23 23 21 20 22 20 22 24 24 26 27 28 29 30 30 31 30 30 30
23 24 22 23 22 24 28 26 26 26 25 23 26 27 26 28 28 27 26 27 27 25 26 27 25 27 24 26 23 23 25 27 27 29 30 32 34 32 33 33 34 35 38
18 20 23 21 19 20 30 30 31 29 29 28 25 29 28 29 31 30 30 31 30 30 30 29 28 30 27 28 27 26 26 27 29 32 31 35 35 36 39 39 39 41 42
22 18 19 23 26 28 25 33 34 34 32 30 30 32 31 29 30 30 31 32 33 35 33 29 30 31 27 27 27 29 29 31 33 34 36 38 40 39 38 41 41 42 45
23 24 20 20 21 23 25 27 30 31 36 36 35 34 35 35 36 39 39 37 36 36 35 31 32 29 27 30 32 30 31 31 32 36 40 37 38 41 44 46 42 44 41
26 24 24 21 20 22 26 27 28 30 32 35 36 34 38 40 39 41 40 41 41 39 37 34 32 30 30 33 33 32 26 28 29 33 37 39 38 38 37 30 38 46 44
27 26 25 23 23 22 23 26 31 33 32 32 34 36 36 35 39 41 42 39 41 40 36 40 35 32 31 33 33 34 34 35 35 37 37 31 33 30 37 30 33 41 38
25 25 24 21 21 22 22 23 27 30 31 32 30 30 30 31 31 33 37 39 34 26 31 26 30 30 29 33 38 39 36 35 39 35 29 24 26 36 35 31 31 25 28
25 25 22 21 20 22 23 24 25 26 28 30 31 31 31 30 29 28 29 30 29 30 31 32 33 32 29 35 29 32 35 37 31 25 28 30 30 31 28 27 23 18 18
25 26 24 24 24 22 24 26 27 27 28 28 28 28 29 30 26 23 25 25 25 26 34 37 36 33 34 43 47 43 36 27 24 29 33 25 17 16 16 17 17 16 19
27 27 25 26 25 24 24 25 28 28 27 29 29 29 30 32 32 32 29 29 28 29 32 35 37 42 50 45 35 38 21 20 27 29 17 11 14 17 17 15 18 21 22
27 26 25 25 24 24 25 24 26 28 28 27 29 30 32 32 34 35 34 34 36 33 30 34 38 38 34 38 29 13 8 15 14 12 13 16 17 15 16 17 19 22 26
25 26 26 26 26 26 25 26 27 27 29 29 28 28 29 30 30 33 34 33 30 30 28 26 29 27 22 10 4 3 9 11 13 14 14 15 15 15 17 20 23 26 29
26 28 27 27 25 26 25 25 27 27 27 26 25 27 27 26 24 21 21 26 19 25 21 22 18 19 14 4 5 8 9 10 11 13 14 16 16 18 21 24 27 31 34
25 26 27 26 25 24 24 24 24 23 26 23 21 20 18 19 17 15 15 14 18 17 19 8 2 2 5 7 8 8 10 11 13 16 16 16 18 20 23 27 31 35 41
25 24 25 23 23 22 23 23 22 22 22 19 19 17 18 17 18 15 13 15 13 9 9 8 7 8 7 7 7 8 9 10 14 15 16 18 22 26 30 32 35 40 44
26 24 23 22 23 24 23 24 22 21 24 21 22 23 17 17 21 20 15 15 14 15 15 10 9 9 7 7 8 11 14 16 17 19 20 23 26 31 33 36 40 45 50
28 27 25 23 18 27 31 34 28 24 19 19 18 17 20 27 28 22 16 16 15 11 10 8 7 8 8 11 13 14 18 20 22 25 27 29 31 33 38 43 47 48 48
25 26 27 28 28 33 43 34 23 26 26 26 22 27 27 33 26 26 23 12 8 9 9 9 8 9 10 12 15 18 20 23 25 26 28 29 34 38 42 46 48 47 45
Wind_Direction
211 218 218 213 228 231 222 222 227 232 225 237 248 248 250 249 252 253 251 262 254 272 286 282 280 281 291 296 300 296 293 298 307 310 307 306 300 301 304 314 309 298 298
207 225 222 212 213 232 237 227 228 227 232 232 231 225 246 243 249 247 258 264 265 274 278 280 279 285 281 283 285 284 290 299 306 307 306 302 306 303 309 314 312 312 318
258 235 233 221 208 224 235 238 240 241 230 241 244 244 248 251 251 253 255 260 270 275 275 273 269 274 279 276 282 287 295 300 300 300 303 303 301 303 312 312 309 307 303
239 218 228 230 208 215 226 230 227 235 241 229 231 239 240 239 242 246 254 261 266 267 273 272 270 273 273 274 280 284 285 292 296 298 301 301 302 305 302 302 305 309 309
232 218 220 233 222 210 219 230 230 229 229 233 233 228 232 233 239 245 254 258 262 266 269 272 274 273 275 285 286 284 286 286 290 292 294 296 298 300 304 308 307 301 308
264 269 211 221 229 226 222 220 231 231 232 239 246 244 239 242 242 246 254 263 267 267 269 270 270 272 277 282 283 284 285 290 293 295 295 296 294 296 300 301 300 295 296
278 280 269 235 249 220 226 229 220 229 231 232 241 246 245 246 250 253 256 258 265 271 270 270 270 270 273 278 279 285 287 288 290 290 291 294 294 294 293 294 298 301 299
277 279 275 268 256 230 224 230 232 230 232 233 235 239 243 248 251 255 261 265 269 271 272 272 273 274 274 277 284 287 286 288 288 289 291 291 293 293 293 294 295 302 301
275 270 275 257 253 237 231 229 236 237 236 243 241 244 244 245 252 253 256 257 263 268 271 271 274 274 278 277 280 284 284 287 288 289 289 289 289 291 291 288 291 293 295
281 286 280 273 254 246 250 240 237 240 240 246 249 243 246 245 248 250 251 251 252 258 269 266 265 267 270 276 281 282 282 286 290 289 288 286 282 287 287 286 288 294 293
281 276 275 271 267 265 255 239 243 237 240 251 252 245 242 245 244 248 254 260 258 258 262 257 259 265 269 272 276 281 280 285 286 287 286 291 288 294 294 290 289 293 299
273 278 276 273 268 253 255 246 246 245 244 252 253 252 244 244 248 254 260 260 259 257 254 250 253 260 267 273 275 278 280 283 282 281 286 290 295 293 295 294 296 294 302
274 276 279 275 269 264 253 252 255 256 248 247 252 253 249 250 254 256 261 267 263 255 254 249 250 256 271 279 276 273 288 287 301 301 300 295 296 300 299 296 283 277 300
275 275 276 274 270 267 266 257 250 248 252 255 255 256 258 257 257 261 265 272 269 260 255 248 254 262 272 276 271 284 284 287 295 296 296 289 295 300 305 299 298 300 306
271 273 275 274 270 267 264 262 253 249 248 252 256 258 261 262 264 267 266 273 273 279 263 248 267 274 272 277 277 279 283 290 299 293 290 295 295 286 299 301 299 305 326
268 272 274 278 275 269 263 259 255 250 251 254 257 258 260 262 264 266 264 268 269 268 268 267 273 271 281 274 273 279 295 298 293 279 281 287 293 298 295 304 312 314 311
267 269 273 276 277 275 270 266 261 260 255 255 256 256 255 257 254 255 264 263 260 260 255 260 261 272 263 266 279 287 290 291 294 287 286 299 303 293 307 314 313 310 309
270 271 273 275 276 277 272 268 267 262 260 254 255 255 257 258 256 260 260 265 269 260 262 260 254 258 261 273 275 276 276 294 286 289 304 300 301 305 306 306 305 306 310
269 271 273 273 275 276 275 271 264 263 260 258 257 256 257 259 260 260 261 262 263 266 269 268 267 269 264 247 254 256 288 283 286 290 293 292 288 288 295 299 300 305 313
268 269 272 272 273 274 274 270 266 261 257 254 255 259 261 260 259 261 259 262 263 264 266 269 273 242 241 309 340 277 250 268 273 276 278 277 281 290 294 299 307 312 315
271 273 275 273 274 273 271 274 266 263 257 249 251 254 258 262 264 269 263 263 272 269 269 270 266 283 307 11 237 238 249 263 276 278 284 289 294 300 303 309 313 314 318
269 271 272 272 280 274 268 270 270 267 256 250 246 256 265 266 273 281 277 263 267 258 282 292 281 213 233 252 262 265 272 281 288 289 289 296 300 304 308 313 319 322 324
271 273 274 272 275 270 267 266 266 262 253 250 242 257 266 278 297 293 269 258 248 230 224 216 236 240 234 243 258 281 295 305 301 301 306 307 310 313 314 318 320 322 325
268 275 276 282 266 270 264 268 273 278 256 251 252 250 274 278 284 277 252 235 210 210 225 246 241 253 266 287 309 316 314 312 310 306 301 302 306 309 312 317 319 320 321
266 272 269 261 241 243 245 264 269 260 267 253 251 261 272 276 270 218 207 205 210 233 235 235 253 278 301 312 315 316 309 303 301 299 300 302 307 314 317 317 317 318 319
273 264 251 246 236 235 243 252 260 264 256 254 257 265 266 271 262 221 216 216 234 237 244 256 261 276 291 302 306 308 303 296 298 300 301 304 310 312 313 315 316 317 319
Height
5891 5894 5893 5895 5899 5901 5902 5903 5908 5911 5917 5919 5920 5919 5922 5926 5926 5927 5925 5925 5925 5927 5931 5932 5932 5932 5930 5929 5930 5930 5929 5927 5927 5931 5930 5930 5929 5930 5930 5926 5922 5920 5905
5886 5892 5892 5892 5894 5898 5899 5901 5903 5909 5912 5914 5915 5916 5920 5922 5922 5922 5922 5921 5923 5925 5926 5927 5927 5928 5927 5927 5927 5928 5927 5926 5925 5926 5928 5927 5927 5926 5925 5922 5920 5918 5916
5885 5888 5890 5891 5891 5894 5895 5898 5898 5898 5905 5908 5911 5913 5915 5917 5918 5918 5918 5919 5921 5922 5923 5924 5924 5924 5925 5925 5923 5923 5923 5923 5923 5922 5922 5922 5923 5921 5920 5919 5917 5916 5914
5880 5881 5882 5884 5885 5890 5891 5890 5895 5899 5900 5904 5906 5909 5911 5914 5914 5913 5914 5918 5918 5919 5920 5921 5921 5921 5921 5921 5920 5920 5920 5920 5920 5919 5919 5918 5917 5916 5915 5915 5913 5910 5908
5869 5872 5878 5880 5878 5883 5887 5889 5885 5890 5896 5899 5902 5904 5906 5907 5908 5909 5912 5913 5913 5915 5916 5917 5917 5918 5919 5917 5917 5916 5915 5916 5916 5915 5915 5915 5914 5911 5909 5907 5906 5904 5902
5852 5856 5866 5870 5877 5880 5877 5883 5887 5887 5887 5891 5895 5898 5899 5901 5903 5906 5907 5908 5909 5911 5911 5912 5913 5913 5912 5912 5912 5912 5911 5911 5910 5909 5908 5908 5907 5905 5904 5901 5901 5898 5897
5857 5856 5860 5854 5868 5874 5872 5880 5880 5885 5886 5886 5889 5892 5894 5896 5899 5900 5901 5902 5904 5905 5905 5906 5906 5907 5907 5907 5906 5907 5906 5905 5905 5903 5902 5901 5899 5898 5896 5895 5893 5890 5888
5853 5854 5857 5859 5860 5864 5867 5869 5874 5878 5882 5883 5885 5888 5890 5891 5893 5895 5896 5897 5898 5899 5898 5899 5900 5900 5901 5901 5899 5900 5899 5898 5897 5895 5894 5893 5891 5889 5888 5887 5885 5882 5879
5849 5850 5852 5854 5857 5858 5860 5862 5866 5870 5875 5877 5879 5882 5884 5885 5885 5887 5889 5890 5891 5892 5892 5892 5893 5892 5892 5892 5894 5894 5892 5890 5889 5887 5886 5883 5882 5880 5879 5878 5876 5874 5871
5844 5842 5841 5845 5847 5850 5854 5856 5859 5864 5868 5869 5871 5873 5875 5876 5877 5878 5880 5880 5882 5883 5883 5885 5885 5884 5885 5884 5884 5885 5884 5882 5880 5878 5878 5875 5873 5871 5869 5867 5866 5864 5862
5835 5839 5838 5838 5841 5843 5845 5850 5852 5857 5860 5861 5864 5864 5866 5867 5868 5869 5870 5872 5873 5873 5874 5876 5875 5875 5877 5876 5876 5876 5876 5875 5873 5870 5867 5865 5864 5862 5860 5857 5856 5854 5851
5830 5830 5834 5835 5835 5837 5839 5841 5844 5846 5849 5850 5852 5854 5856 5857 5859 5861 5861 5862 5862 5863 5864 5865 5865 5867 5868 5868 5868 5867 5867 5866 5864 5862 5860 5857 5855 5853 5849 5846 5845 5843 5839
5823 5825 5824 5827 5829 5829 5831 5833 5835 5839 5840 5842 5844 5847 5848 5850 5851 5850 5851 5851 5851 5851 5853 5854 5855 5857 5859 5859 5859 5859 5857 5857 5855 5853 5850 5847 5846 5842 5838 5835 5836 5832 5830
5815 5816 5818 5819 5819 5820 5822 5823 5826 5830 5832 5833 5836 5838 5839 5840 5840 5841 5841 5841 5840 5841 5841 5844 5846 5847 5849 5849 5850 5848 5846 5845 5844 5841 5838 5836 5835 5832 5831 5828 5826 5823 5819
5809 5809 5810 5812 5813 5814 5815 5816 5818 5819 5821 5823 5825 5827 5829 5829 5830 5831 5831 5831 5830 5830 5834 5822 5836 5838 5839 5839 5839 5838 5836 5836 5834 5831 5829 5827 5826 5825 5822 5820 5817 5814 5809
5803 5803 5803 5804 5804 5804 5806 5807 5808 5809 5811 5813 5815 5816 5818 5819 5820 5821 5821 5821 5822 5825 5827 5828 5828 5830 5830 5828 5827 5826 5825 5825 5823 5822 5821 5820 5819 5816 5814 5812 5809 5806 5804
5796 5796 5796 5797 5797 5797 5797 5798 5799 5800 5801 5803 5805 5807 5808 5810 5811 5812 5813 5814 5815 5816 5818 5819 5820 5820 5817 5818 5816 5818 5817 5817 5815 5814 5813 5811 5809 5807 5803 5803 5802 5800 5798
5789 5789 5789 5789 5789 5790 5790 5790 5791 5792 5793 5795 5796 5798 5799 5801 5802 5804 5805 5806 5806 5807 5806 5808 5808 5809 5808 5809 5809 5809 5807 5806 5806 5807 5805 5803 5802 5800 5797 5796 5796 5795 5793
5781 5781 5781 5781 5781 5782 5782 5782 5783 5783 5784 5786 5788 5789 5790 5792 5793 5795 5796 5797 5798 5798 5798 5798 5797 5796 5796 5797 5797 5799 5799 5801 5800 5798 5797 5797 5797 5794 5793 5792 5791 5789 5786
5773 5773 5773 5773 5773 5773 5773 5773 5773 5775 5776 5778 5780 5782 5783 5784 5785 5786 5786 5787 5788 5789 5789 5790 5790 5789 5785 5787 5788 5790 5792 5794 5795 5794 5794 5793 5792 5788 5787 5786 5783 5780 5776
5764 5764 5764 5764 5765 5764 5764 5765 5765 5766 5768 5770 5772 5774 5776 5777 5778 5778 5779 5779 5781 5783 5783 5784 5782 5783 5781 5783 5786 5787 5787 5789 5788 5789 5788 5787 5784 5782 5781 5778 5776 5772 5769
5756 5755 5755 5755 5755 5755 5756 5757 5757 5759 5761 5763 5766 5768 5769 5770 5770 5770 5771 5772 5773 5775 5776 5775 5776 5778 5780 5779 5782 5783 5783 5783 5782 5783 5782 5779 5777 5775 5774 5771 5768 5763 5758
5747 5746 5746 5747 5747 5747 5748 5749 5751 5753 5754 5757 5760 5761 5763 5765 5765 5765 5766 5767 5768 5769 5772 5773 5774 5775 5776 5777 5777 5776 5775 5775 5776 5775 5772 5772 5770 5768 5765 5762 5757 5751 5745
5738 5738 5738 5738 5741 5739 5738 5742 5745 5746 5748 5751 5753 5756 5757 5759 5760 5760 5762 5763 5764 5765 5767 5768 5770 5771 5771 5771 5771 5770 5769 5768 5769 5767 5765 5763 5762 5760 5756 5750 5746 5739 5734
5729 5729 5731 5733 5732 5733 5737 5737 5739 5741 5743 5745 5747 5749 5751 5752 5753 5754 5756 5758 5759 5762 5763 5764 5765 5765 5765 5764 5764 5765 5764 5764 5762 5761 5760 5757 5754 5749 5745 5741 5738 5731 5723
5719 5718 5719 5721 5723 5725 5727 5731 5732 5733 5735 5738 5741 5743 5743 5744 5745 5748 5750 5754 5757 5758 5760 5760 5761 5760 5761 5761 5760 5759 5760 5759 5756 5752 5749 5746 5742 5740 5736 5731 5725 5720 5714